Regional Weather Roundup
Issued by NWS

Home | Current Version | Previous Version | Graphics & Text | Print | Product List | Glossary On
Versions: 1 2 3 4 5 6 7 8 9 10 11 12 13 14 15 16 17 18 19 20 21 22 23 24 25 26 27 28 29 30 31 32 33 34 35 36 37 38 39 40 41 42 43 44 45 46 47 48 49 50
000
ASUS44 KMEG 050600
RWRTN
TENNESSEE HOURLY STATE WEATHER ROUNDUP
NATIONAL WEATHER SERVICE MEMPHIS TN
1200 AM CST THU MAR 05 2015

TNZ002-004-019-021-049-052-054-088>092-050700-
WEST TENNESSEE

CITY           SKY/WX    TMP DP  RH WIND       PRES   REMARKS
MEMPHIS INTL   LGTSLEET  24  20  84 N17G26    30.21S FOG     WCI  11
NWS MEMPHIS      N/A     23 N/A N/A MISG        N/A
JACKSON        LGT SNOW  23  19  85 N17G33    30.21S FOG     WCI   9
DYERSBURG      CLOUDY    19   7  58 NE20G33   30.28F VSB 1/2 WCI   4
UNION CITY     CLOUDY    18  16  93 NE14      30.28S WCI   4
PARIS          CLOUDY    18  14  86 N10       30.24S WCI   6
LEXINGTON      CLOUDY    23  19  86 N13       30.15S WCI  11
SAVANNAH       CLOUDY    28  28 100 N14       30.13R WCI  17
$$

TNZ008-025-027-028-033-062-065-066-050700-
NORTH MIDDLE TENNESSEE

CITY           SKY/WX    TMP DP  RH WIND       PRES   REMARKS
NASHVILLE      FRZ DRZL  28  25  88 N16G23    30.16R WCI  16
CLARKSVILLE    LGT SNOW  20  18  92 N17       30.23S FOG     WCI   5
COOKEVILLE     CLOUDY    34  32  93 NE5       30.05S WCI  30
CROSSVILLE     CLOUDY    34  31  88 N12       30.03R WCI  25
$$

TNZ061-075-076-078-094-096-097-050700-
SOUTH MIDDLE TENNESSEE

CITY           SKY/WX    TMP DP  RH WIND       PRES   REMARKS
FAYETTEVILLE   CLOUDY    32  30  93 N15         N/A  WCI  22
TULLAHOMA      CLOUDY    32  30  93 N14       30.04F WCI  22
WINCHESTER     CLOUDY    36  34  93 N15       30.03S WCI  26
COLUMBIA       CLOUDY   N/A N/A N/A N12       30.08F
SHELBYVILLE    CLOUDY    32  30  93 N17       30.08F WCI  21
$$

TNZ017-018-042-046-047-050700-
NORTHEAST TENNESSEE

CITY           SKY/WX    TMP DP  RH WIND       PRES   REMARKS
TRI CITIES     LGT RAIN  43  40  89 CALM      29.98R
ELIZABETHTON   RAIN      43  43 100 SW8       29.97R
$$

TNZ012-013-036-069-073-074-050700-
CENTRAL EAST TENNESSEE

CITY           SKY/WX    TMP DP  RH WIND       PRES   REMARKS
KNOXVILLE      LGT RAIN  40  38  93 N8        29.97F WCI  34
OAK RIDGE      CLOUDY    41  38  89 NE6       30.00F
GATLINBURG     CLOUDY    43  41  93 NW6       29.97F
$$

TNZ083-085-099-050700-
SOUTHEAST TENNESSEE

CITY           SKY/WX    TMP DP  RH WIND       PRES   REMARKS
CHATTANOOGA    CLOUDY    46  41  82 N13       29.97F
$$

SKY/WX REPORTED AS FAIR MEANS FEW OR NO CLOUDS BELOW
12 THOUSAND FEET.



USA.gov is the U.S. government's official web portal to all federal, state and local government web resources and services.